Location: Unspecified
(0.0000°N, 0.0000°E)
Time: 01:23:32
(UTC+00:00)

Vanguard 1 Rocket - Pass Details

Date: 22 November 2019
Orbit: 650 x 4226 km, 34.3° (Epoch: 10 December)

Event Time Altitude Azimuth Distance (km) Brightness Sun altitude
Rises 20:35:25 0° 228° (SW) 8,114 13.1 -39.2°
Reaches altitude 10° 20:41:51 10° 223° (SW) 6,703 12.4 -40.6°
Enters shadow 21:00:26 56° 157° (SSE) 2,662 9.5 -44.7°
